sat.trackr.live / text

‹ back to catalog

TIANMU-1 09

NORAD 57401 · 2023-101C

PAYLOAD ACTIVE UNKNOWN

§ Identity

Operator
Country
PRC
Launch date
2023-07-20
Launch site
JSC
Launch vehicle
Mass (kg)
RCS (m²)

Purposes: earth_obs

External: N2YO · Heavens-Above · Gunter

§ Orbital elements

Epoch: 2026-09-19T22:17:13.288992Z

Period
94.07 min
Inclination
97.2453°
Eccentricity
0.0004318
Mean motion
15.30724645 rev/d
Perigee alt
470.7 km
Apogee alt
476.6 km
Semi-major
6,851.8 km
B*
1.3845e-4
RAAN
310.5570°
Arg perigee
140.3041°
Mean anomaly
219.8517°
Rev number
17,613

§ Raw data

TIANMU-1 091 57401U 23101C   26262.92862603  .00004037  00000+0  13845-3 0  99952 57401  97.2453 310.5570 0004318 140.3041 219.8517 15.30724645176137

JSON: /api/v1/satellites/57401 · /tle

For live sub-satellite position, see the globe view (requires WebGL).

§ Visibility from observer

Set your observer location to see the next 7 days of passes ≥ 10°. The values pass through the URL so the page stays shareable.

No JS? Fill the form by hand. The geolocation button needs JavaScript.